Location: Splawn
(30.9202°N, 96.9858°W)
Time: 01:56:49
(UTC+00:00)

Hubble Space Telescope - Visible Passes

Search period start: 28 January 2020 00:00
Search period end: 07 February 2020 00:00
Orbit: 536 x 540 km, 28.5° (Epoch: 26 January)

Date Brightness Start Highest point End Pass type
(mag) Time Alt. Az. Time Alt. Az. Time Alt. Az.
28 Jan 3.1 12:16:12 10° SSW 12:19:17 20° SSE 12:22:22 10° ESE visible
29 Jan 2.7 12:05:12 10° SW 12:08:35 25° SSE 12:11:59 10° ESE visible
30 Jan 2.3 11:55:28 17° SSW 11:57:55 30° SSE 12:01:31 10° E visible
31 Jan 2.0 11:45:47 26° SSW 11:47:14 35° SSE 11:51:01 10° E visible
01 Feb 1.6 11:36:00 38° S 11:36:35 41° SSE 11:40:28 10° E visible
02 Feb 1.5 11:26:07 46° SSE 11:26:07 46° SSE 11:29:53 10° E visible
03 Feb 1.8 11:16:11 42° SE 11:16:11 42° SE 11:19:18 10° E visible
04 Feb 2.3 11:06:13 33° ESE 11:06:13 33° ESE 11:08:42 10° E visible
04 Feb 1.2 12:41:40 10° W 12:45:43 56° S 12:49:45 10° ESE visible
05 Feb 2.9 10:56:12 25° ESE 10:56:12 25° ESE 10:58:05 10° E visible
05 Feb 1.3 12:31:32 13° W 12:35:05 51° S 12:39:05 10° ESE visible
06 Feb 3.3 10:46:12 19° ESE 10:46:12 19° ESE 10:47:28 10° E visible
06 Feb 1.4 12:21:32 17° W 12:24:26 46° SSW 12:28:23 10° ESE visible
